Language: 


Des rapports , des résumés tant et plus, au choix de chacun....


Données statistiques de la station
Quotidien Rapport Aout 21, 2017 Unités:  Métrique    Anglais   les deux
« Précédent Jour
Suivant Jour »
Quotidien Hebdomadaire Mensuel Annuel Actuel
  Haut: Bas: Moyen:
Température: 20.8 °C 0.0 °C 17 °C
Pt de rosée: 17.0 °C 12.0 °C 15.2 °C
Humidité: 98 % 0 % 88 %
Vitesse du vent: 15.1 km/h 0.0 km/h 1.9 km/h
Rafales: 19.8 km/h - -
Vent:- - SSE
Pression: 1023.9 hPa 1019.9 hPa -
Précipitation: 1.8 mm    
Historical Graphs
 
 
Données statistiques pour Aout 21, 2017
Heure Température Point de rosée Pression Vent Vitesse du vent Refales Humidité Pluie (taux horaire)
00:04 14.8 °C 12.0 °C 1023.9 hPa Calm     82 % 0.0 mm
00:09 14.9 °C 12.0 °C 1023.9 hPa Calm     82 % 0.0 mm
00:14 14.9 °C 12.0 °C 1023.9 hPa Calm     82 % 0.0 mm
00:19 14.9 °C 12.0 °C 1023.9 hPa Calm     82 % 0.0 mm
00:24 14.9 °C 12.0 °C 1023.9 hPa Calm     82 % 0.0 mm
00:29 14.9 °C 12.0 °C 1023.9 hPa Calm     82 % 0.0 mm
00:34 14.9 °C 12.0 °C 1023.9 hPa Calm     82 % 0.0 mm
00:40 14.9 °C 12.0 °C 1023.9 hPa Calm     83 % 0.0 mm
00:45 14.9 °C 13.0 °C 1023.9 hPa Calm     84 % 0.0 mm
00:50 14.8 °C 12.0 °C 1023.9 hPa Calm     84 % 0.0 mm
00:55 14.7 °C 12.0 °C 1023.9 hPa Calm     84 % 0.0 mm
01:00 14.7 °C 12.0 °C 1023.9 hPa Calm     84 % 0.0 mm
01:05 14.7 °C 12.0 °C 1023.9 hPa Calm     84 % 0.0 mm
01:10 14.7 °C 13.0 °C 1023.9 hPa Calm     85 % 0.0 mm
01:15 14.7 °C 13.0 °C 1023.9 hPa Calm     85 % 0.0 mm
01:20 14.7 °C 13.0 °C 1023.9 hPa Calm     85 % 0.0 mm
01:21 14.7 °C 13.0 °C 1023.9 hPa Calm     86 % 0.0 mm
01:26 14.6 °C 13.0 °C 1023.9 hPa Calm     86 % 0.0 mm
01:31 14.6 °C 13.0 °C 1023.9 hPa Calm     87 % 0.0 mm
01:36 14.6 °C 13.0 °C 1023.9 hPa Calm     87 % 0.0 mm
01:41 14.6 °C 13.0 °C 1023.9 hPa Calm     87 % 0.0 mm
01:46 14.6 °C 13.0 °C 1023.9 hPa Calm     87 % 0.0 mm
01:51 14.6 °C 13.0 °C 1023.9 hPa Calm     88 % 0.0 mm
01:56 14.6 °C 13.0 °C 1023.9 hPa Calm     88 % 0.0 mm
02:01 14.6 °C 13.0 °C 1022.9 hPa Calm     88 % 0.0 mm
02:06 14.5 °C 13.0 °C 1022.9 hPa Calm     89 % 0.0 mm
02:11 14.5 °C 13.0 °C 1022.9 hPa Calm     89 % 0.0 mm
02:16 14.5 °C 13.0 °C 1023.9 hPa Calm     89 % 0.0 mm
02:21 14.5 °C 13.0 °C 1023.9 hPa Calm     90 % 0.0 mm
02:26 14.4 °C 13.0 °C 1023.9 hPa Calm     90 % 0.0 mm
02:31 14.4 °C 13.0 °C 1022.9 hPa Calm     91 % 0.0 mm
02:36 14.4 °C 13.0 °C 1022.9 hPa Calm     91 % 0.0 mm
02:41 14.4 °C 13.0 °C 1022.9 hPa Calm     91 % 0.0 mm
02:46 14.4 °C 13.0 °C 1022.9 hPa Calm     91 % 0.0 mm
02:51 14.4 °C 13.0 °C 1022.9 hPa Calm     92 % 0.0 mm
02:56 14.4 °C 13.0 °C 1022.9 hPa Calm     92 % 0.0 mm
03:02 0.0 °C 13.0 °C 1021.9 hPa Calm     0 % 0.0 mm
03:07 14.4 °C 13.0 °C 1021.9 hPa Calm     92 % 0.0 mm
03:12 14.4 °C 13.0 °C 1021.9 hPa Calm     92 % 0.0 mm
03:17 14.3 °C 13.0 °C 1022.9 hPa Calm     93 % 0.0 mm
03:22 14.3 °C 13.0 °C 1022.9 hPa Calm     93 % 0.0 mm
03:27 14.3 °C 13.0 °C 1022.9 hPa Calm     93 % 0.0 mm
03:32 14.3 °C 13.0 °C 1021.9 hPa Calm     93 % 0.0 mm
03:37 14.3 °C 13.0 °C 1021.9 hPa Calm     93 % 0.0 mm
03:42 14.3 °C 13.0 °C 1021.9 hPa Calm     94 % 0.0 mm
03:47 14.3 °C 13.0 °C 1022.9 hPa Calm     94 % 0.3 mm
03:52 14.3 °C 13.0 °C 1022.9 hPa Calm     94 % 0.3 mm
03:57 14.3 °C 13.0 °C 1022.9 hPa Calm   1.4 km/h 94 % 0.3 mm
04:02 14.3 °C 13.0 °C 1022.9 hPa SW 3.2 km/h 4.3 km/h 94 % 0.3 mm
04:07 14.2 °C 13.0 °C 1022.9 hPa Calm   4.7 km/h 94 % 0.5 mm
04:12 14.2 °C 13.0 °C 1022.9 hPa Calm   4.7 km/h 94 % 0.5 mm
04:17 14.2 °C 14.0 °C 1021.9 hPa Calm   4.7 km/h 95 % 0.5 mm
04:22 14.1 °C 13.0 °C 1021.9 hPa Calm   4.7 km/h 95 % 0.5 mm
04:27 14.1 °C 13.0 °C 1021.9 hPa WSW 4.7 km/h 4.7 km/h 95 % 1.0 mm
04:32 14.1 °C 13.0 °C 1021.9 hPa Calm   4.7 km/h 95 % 1.3 mm
04:37 14.1 °C 13.0 °C 1021.9 hPa Calm     95 % 1.3 mm
04:42 14.1 °C 13.0 °C 1021.9 hPa Calm     95 % 1.3 mm
04:47 14.1 °C 13.0 °C 1022.9 hPa Calm     95 % 1.0 mm
04:52 14.1 °C 14.0 °C 1022.9 hPa Calm     96 % 1.0 mm
04:57 14.1 °C 14.0 °C 1022.9 hPa Calm     96 % 1.0 mm
05:02 14.1 °C 14.0 °C 1022.9 hPa Calm     96 % 1.3 mm
05:07 14.1 °C 14.0 °C 1022.9 hPa Calm     96 % 1.0 mm
05:12 14.1 °C 14.0 °C 1022.9 hPa Calm     96 % 1.0 mm
05:17 14.1 °C 14.0 °C 1022.9 hPa Calm     96 % 1.0 mm
05:22 14.0 °C 14.0 °C 1022.9 hPa Calm     96 % 1.0 mm
05:27 14.0 °C 14.0 °C 1022.9 hPa Calm     96 % 0.5 mm
05:32 14.0 °C 14.0 °C 1022.9 hPa Calm     96 % 0.3 mm
05:37 14.0 °C 14.0 °C 1022.9 hPa Calm     96 % 0.5 mm
05:42 14.0 °C 14.0 °C 1022.9 hPa Calm     96 % 0.5 mm
05:47 14.0 °C 14.0 °C 1022.9 hPa Calm     97 % 0.5 mm
05:52 14.0 °C 14.0 °C 1022.9 hPa Calm     97 % 0.5 mm
05:57 14.0 °C 14.0 °C 1022.9 hPa Calm     97 % 0.5 mm
06:01 14.0 °C 14.0 °C 1022.9 hPa Calm     97 % 0.3 mm
06:06 14.0 °C 14.0 °C 1022.9 hPa Calm     97 % 0.3 mm
06:11 14.0 °C 14.0 °C 1022.9 hPa Calm     97 % 0.3 mm
06:16 14.0 °C 14.0 °C 1022.9 hPa Calm     97 % 0.3 mm
06:21 14.0 °C 14.0 °C 1022.9 hPa Calm     97 % 0.3 mm
06:27 14.0 °C 14.0 °C 1022.9 hPa Calm     97 % 0.3 mm
06:32 14.0 °C 14.0 °C 1022.9 hPa Calm     97 % 0.3 mm
06:37 14.0 °C 14.0 °C 1022.9 hPa Calm   1.4 km/h 97 % 0.0 mm
06:42 14.0 °C 14.0 °C 1022.9 hPa Calm   4.3 km/h 97 % 0.0 mm
06:47 14.0 °C 14.0 °C 1022.9 hPa Calm   4.3 km/h 97 % 0.0 mm
06:52 14.0 °C 14.0 °C 1022.9 hPa Calm   3.5 km/h 97 % 0.0 mm
06:57 14.0 °C 14.0 °C 1022.9 hPa ESE 5.5 km/h 5.5 km/h 97 % 0.0 mm
07:02 14.0 °C 14.0 °C 1021.9 hPa ESE 4.7 km/h 5.8 km/h 97 % 0.0 mm
07:07 14.0 °C 14.0 °C 1021.9 hPa Calm   5.8 km/h 97 % 0.0 mm
07:12 14.1 °C 14.0 °C 1021.9 hPa Calm   4.7 km/h 97 % 0.0 mm
07:17 14.1 °C 14.0 °C 1021.9 hPa Calm   5.5 km/h 97 % 0.0 mm
07:22 14.2 °C 14.0 °C 1021.9 hPa Calm   5.5 km/h 98 % 0.0 mm
07:27 14.2 °C 14.0 °C 1021.9 hPa Calm   4.0 km/h 98 % 0.0 mm
07:33 14.3 °C 14.0 °C 1021.9 hPa Calm   4.0 km/h 98 % 0.0 mm
07:38 14.3 °C 14.0 °C 1021.9 hPa Calm   1.4 km/h 98 % 0.0 mm
07:43 14.3 °C 14.0 °C 1021.9 hPa Calm   1.4 km/h 98 % 0.0 mm
07:48 14.4 °C 14.0 °C 1021.9 hPa Calm     98 % 0.0 mm
07:53 14.4 °C 14.0 °C 1021.9 hPa Calm   4.3 km/h 98 % 0.0 mm
07:58 14.5 °C 15.0 °C 1021.9 hPa Calm   4.3 km/h 98 % 0.0 mm
08:03 14.5 °C 15.0 °C 1021.9 hPa Calm   3.5 km/h 98 % 0.0 mm
08:08 14.5 °C 15.0 °C 1021.9 hPa Calm   2.1 km/h 98 % 0.0 mm
08:13 14.6 °C 15.0 °C 1021.9 hPa Calm     98 % 0.0 mm
08:18 14.6 °C 15.0 °C 1022.9 hPa Calm     98 % 0.0 mm
08:23 14.6 °C 15.0 °C 1022.9 hPa Calm     98 % 0.0 mm
08:28 14.6 °C 15.0 °C 1022.9 hPa Calm     98 % 0.0 mm
08:33 14.6 °C 15.0 °C 1022.9 hPa Calm   1.8 km/h 98 % 0.0 mm
08:38 14.7 °C 15.0 °C 1022.9 hPa Calm   3.5 km/h 98 % 0.0 mm
08:43 14.7 °C 15.0 °C 1022.9 hPa Calm   3.5 km/h 98 % 0.0 mm
08:48 14.7 °C 15.0 °C 1022.9 hPa Calm   2.6 km/h 98 % 0.0 mm
08:53 14.8 °C 15.0 °C 1022.9 hPa Calm   5.8 km/h 98 % 0.0 mm
08:58 14.8 °C 15.0 °C 1022.9 hPa East 5.8 km/h 5.8 km/h 98 % 0.0 mm
09:03 14.8 °C 15.0 °C 1022.9 hPa ESE 6.9 km/h 6.9 km/h 98 % 0.0 mm
09:04 14.8 °C 15.0 °C 1022.9 hPa East 1.8 km/h 6.9 km/h 98 % 0.0 mm
09:09 14.9 °C 15.0 °C 1022.9 hPa ESE 6.9 km/h 6.9 km/h 98 % 0.0 mm
09:14 14.9 °C 15.0 °C 1022.9 hPa Calm   7.9 km/h 98 % 0.0 mm
09:19 14.9 °C 15.0 °C 1022.9 hPa ESE 2.1 km/h 7.9 km/h 98 % 0.0 mm
09:24 15.0 °C 15.0 °C 1022.9 hPa Calm   5.5 km/h 97 % 0.0 mm
09:29 15.1 °C 15.0 °C 1022.9 hPa Calm   5.5 km/h 98 % 0.0 mm
09:34 15.2 °C 15.0 °C 1022.9 hPa Calm   6.1 km/h 98 % 0.0 mm
09:39 15.4 °C 15.0 °C 1022.9 hPa ESE 6.9 km/h 9.0 km/h 98 % 0.0 mm
09:44 15.5 °C 16.0 °C 1022.9 hPa SSE 2.6 km/h 9.0 km/h 98 % 0.0 mm
09:49 15.6 °C 15.0 °C 1022.9 hPa ESE 9.0 km/h 9.0 km/h 97 % 0.0 mm
09:54 15.6 °C 15.0 °C 1022.9 hPa Calm   9.0 km/h 97 % 0.0 mm
09:59 15.7 °C 15.0 °C 1022.9 hPa Calm   9.0 km/h 97 % 0.0 mm
10:05 15.7 °C 15.0 °C 1022.9 hPa Calm   8.7 km/h 97 % 0.0 mm
10:10 15.8 °C 15.0 °C 1022.9 hPa Calm   8.7 km/h 97 % 0.0 mm
10:15 15.9 °C 16.0 °C 1021.9 hPa ESE 3.2 km/h 8.7 km/h 97 % 0.0 mm
10:20 16.1 °C 16.0 °C 1021.9 hPa ESE 6.1 km/h 6.9 km/h 96 % 0.0 mm
10:25 16.3 °C 16.0 °C 1021.9 hPa ESE 8.7 km/h 10.5 km/h 96 % 0.0 mm
10:30 16.3 °C 16.0 °C 1022.9 hPa South 5.5 km/h 10.5 km/h 96 % 0.0 mm
10:35 17.0 °C 17.0 °C 1022.9 hPa SSE 4.3 km/h 10.5 km/h 96 % 0.0 mm
10:37 17.0 °C 17.0 °C 1022.9 hPa Calm   10.1 km/h 96 % 0.0 mm
10:42 17.6 °C 17.0 °C 1022.9 hPa South 6.9 km/h 9.3 km/h 96 % 0.0 mm
10:47 18.0 °C 17.0 °C 1021.9 hPa SE 5.8 km/h 10.5 km/h 94 % 0.0 mm
10:52 18.2 °C 17.0 °C 1021.9 hPa SE 10.5 km/h 10.5 km/h 93 % 0.0 mm
10:57 18.2 °C 17.0 °C 1021.9 hPa Calm   10.5 km/h 92 % 0.0 mm
11:02 18.4 °C 17.0 °C 1021.9 hPa SE 5.8 km/h 9.3 km/h 91 % 0.0 mm
11:07 18.5 °C 17.0 °C 1021.9 hPa SSE 6.9 km/h 6.9 km/h 91 % 0.0 mm
11:12 18.7 °C 17.0 °C 1021.9 hPa Calm   9.7 km/h 89 % 0.0 mm
11:17 18.8 °C 17.0 °C 1021.9 hPa SSW 4.7 km/h 9.7 km/h 88 % 0.0 mm
11:22 18.6 °C 16.0 °C 1021.9 hPa SE 9.0 km/h 12.2 km/h 86 % 0.0 mm
11:27 18.6 °C 16.0 °C 1021.9 hPa SSE 6.9 km/h 12.2 km/h 84 % 0.0 mm
11:32 18.5 °C 15.0 °C 1021.9 hPa SSE 15.1 km/h 15.1 km/h 81 % 0.0 mm
11:37 18.5 °C 16.0 °C 1021.9 hPa SSE 1.4 km/h 15.1 km/h 82 % 0.0 mm
11:42 18.6 °C 16.0 °C 1021.9 hPa SSE 9.3 km/h 14.0 km/h 82 % 0.0 mm
11:47 18.8 °C 16.0 °C 1021.9 hPa SE 5.8 km/h 12.2 km/h 82 % 0.0 mm
11:52 19.0 °C 16.0 °C 1021.9 hPa Calm   7.9 km/h 82 % 0.0 mm
11:57 19.2 °C 16.0 °C 1021.9 hPa SE 12.6 km/h 12.6 km/h 81 % 0.0 mm
12:02 19.3 °C 16.0 °C 1021.9 hPa Calm   12.6 km/h 80 % 0.0 mm
12:07 19.5 °C 16.0 °C 1021.9 hPa SE 5.0 km/h 10.5 km/h 80 % 0.0 mm
12:12 19.6 °C 16.0 °C 1021.9 hPa SSE 12.6 km/h 12.6 km/h 79 % 0.0 mm
12:17 19.5 °C 16.0 °C 1021.9 hPa SSE 14.0 km/h 19.8 km/h 77 % 0.0 mm
12:22 19.7 °C 16.0 °C 1021.9 hPa South 8.7 km/h 19.8 km/h 79 % 0.0 mm
12:27 19.5 °C 16.0 °C 1021.9 hPa South 6.1 km/h 14.0 km/h 77 % 0.0 mm
12:32 19.5 °C 16.0 °C 1021.9 hPa SSE 7.9 km/h 12.6 km/h 78 % 0.0 mm
12:37 19.5 °C 16.0 °C 1021.9 hPa SE 9.3 km/h 11.9 km/h 78 % 0.0 mm
12:42 19.5 °C 16.0 °C 1021.9 hPa Calm   15.8 km/h 78 % 0.0 mm
12:47 19.6 °C 16.0 °C 1021.9 hPa SE 6.4 km/h 15.8 km/h 78 % 0.0 mm
12:52 19.7 °C 15.0 °C 1021.9 hPa SE 9.0 km/h 13.0 km/h 76 % 0.0 mm
12:57 19.7 °C 15.0 °C 1021.9 hPa SSE 9.0 km/h 14.3 km/h 76 % 0.0 mm
13:02 19.9 °C 16.0 °C 1021.9 hPa SSE 12.2 km/h 14.3 km/h 77 % 0.0 mm
13:07 20.0 °C 16.0 °C 1021.9 hPa SE 2.1 km/h 16.3 km/h 75 % 0.0 mm
13:12 19.9 °C 16.0 °C 1021.9 hPa SSE 4.7 km/h 16.3 km/h 76 % 0.0 mm
13:17 20.0 °C 16.0 °C 1021.9 hPa Calm   13.7 km/h 76 % 0.0 mm
13:22 19.8 °C 15.0 °C 1021.9 hPa SSW 7.9 km/h 16.6 km/h 75 % 0.0 mm
13:27 19.9 °C 16.0 °C 1021.9 hPa South 9.3 km/h 16.6 km/h 76 % 0.0 mm
13:32 20.1 °C 16.0 °C 1021.9 hPa South 5.0 km/h 16.3 km/h 76 % 0.0 mm
13:41 20.4 °C 16.0 °C 1021.9 hPa South 6.9 km/h 13.0 km/h 76 % 0.0 mm
13:46 20.5 °C 17.0 °C 1021.9 hPa SE 5.8 km/h 13.0 km/h 77 % 0.0 mm
13:51 20.4 °C 16.0 °C 1021.9 hPa Calm   10.5 km/h 76 % 0.0 mm
13:56 20.5 °C 17.0 °C 1021.9 hPa SE 10.1 km/h 11.1 km/h 77 % 0.0 mm
14:01 20.1 °C 16.0 °C 1021.9 hPa ESE 3.5 km/h 12.6 km/h 75 % 0.0 mm
14:06 20.1 °C 16.0 °C 1021.9 hPa SSW 6.9 km/h 15.8 km/h 77 % 0.0 mm
14:11 20.3 °C 16.0 °C 1021.9 hPa SSE 9.3 km/h 15.8 km/h 76 % 0.0 mm
14:16 20.7 °C 17.0 °C 1020.9 hPa SE 6.9 km/h 14.0 km/h 78 % 0.0 mm
14:21 20.8 °C 17.0 °C 1020.9 hPa Calm   12.6 km/h 77 % 0.0 mm
14:26 20.5 °C 16.0 °C 1020.9 hPa Calm   12.6 km/h 76 % 0.0 mm
14:31 20.4 °C 16.0 °C 1021.9 hPa South 4.7 km/h 11.9 km/h 77 % 0.0 mm
14:36 20.4 °C 16.0 °C 1021.9 hPa South 7.9 km/h 10.5 km/h 77 % 0.0 mm
14:41 20.2 °C 16.0 °C 1021.9 hPa ESE 5.0 km/h 12.6 km/h 77 % 0.0 mm
14:46 20.2 °C 16.0 °C 1020.9 hPa South 5.8 km/h 12.6 km/h 78 % 0.0 mm
14:51 20.2 °C 16.0 °C 1020.9 hPa SSE 6.4 km/h 7.9 km/h 78 % 0.0 mm
14:56 20.2 °C 16.0 °C 1020.9 hPa South 7.9 km/h 13.7 km/h 78 % 0.0 mm
15:01 19.9 °C 16.0 °C 1020.9 hPa SSE 11.9 km/h 13.7 km/h 77 % 0.0 mm
15:06 19.8 °C 16.0 °C 1020.9 hPa SSE 9.0 km/h 12.6 km/h 78 % 0.0 mm
15:11 19.8 °C 16.0 °C 1020.9 hPa Calm   9.7 km/h 78 % 0.0 mm
15:16 19.8 °C 16.0 °C 1020.9 hPa SSE 1.8 km/h 9.3 km/h 78 % 0.0 mm
15:21 19.8 °C 16.0 °C 1020.9 hPa SSE 5.5 km/h 12.6 km/h 79 % 0.0 mm
15:27 19.7 °C 16.0 °C 1020.9 hPa South 5.8 km/h 12.6 km/h 79 % 0.0 mm
15:32 19.6 °C 16.0 °C 1020.9 hPa SE 3.2 km/h 11.1 km/h 80 % 0.0 mm
15:37 19.7 °C 16.0 °C 1020.9 hPa Calm   11.1 km/h 80 % 0.0 mm
15:42 19.7 °C 16.0 °C 1020.9 hPa Calm   9.0 km/h 80 % 0.0 mm
15:47 19.5 °C 16.0 °C 1020.9 hPa Calm   10.5 km/h 80 % 0.0 mm
15:52 19.4 °C 16.0 °C 1020.9 hPa Calm   10.5 km/h 80 % 0.0 mm
15:57 19.6 °C 16.0 °C 1020.9 hPa Calm   8.7 km/h 81 % 0.0 mm
16:02 19.9 °C 17.0 °C 1020.9 hPa SSW 7.6 km/h 10.5 km/h 81 % 0.0 mm
16:07 20.4 °C 17.0 °C 1020.9 hPa South 5.0 km/h 10.5 km/h 80 % 0.0 mm
16:12 20.2 °C 17.0 °C 1020.9 hPa SSE 8.7 km/h 10.1 km/h 79 % 0.0 mm
16:17 19.8 °C 16.0 °C 1020.9 hPa SSE 10.1 km/h 11.1 km/h 80 % 0.0 mm
16:22 19.8 °C 16.0 °C 1020.9 hPa Calm   11.9 km/h 80 % 0.0 mm
16:27 20.0 °C 17.0 °C 1020.9 hPa SSE 7.6 km/h 11.9 km/h 80 % 0.0 mm
16:32 19.9 °C 17.0 °C 1020.9 hPa SSW 7.9 km/h 13.7 km/h 80 % 0.0 mm
16:37 19.9 °C 17.0 °C 1020.9 hPa Calm   13.7 km/h 81 % 0.0 mm
16:43 20.4 °C 17.0 °C 1020.9 hPa Calm   12.6 km/h 81 % 0.0 mm
16:48 20.5 °C 17.0 °C 1020.9 hPa SSE 7.6 km/h 12.6 km/h 81 % 0.0 mm
16:53 20.3 °C 17.0 °C 1020.9 hPa Calm   11.6 km/h 80 % 0.0 mm
16:58 19.8 °C 16.0 °C 1020.9 hPa Calm   11.6 km/h 80 % 0.0 mm
17:03 19.5 °C 16.0 °C 1020.9 hPa SSE 1.4 km/h 11.6 km/h 80 % 0.0 mm
17:08 19.4 °C 16.0 °C 1020.9 hPa Calm   10.1 km/h 80 % 0.0 mm
17:13 19.2 °C 16.0 °C 1020.9 hPa South 1.4 km/h 11.6 km/h 82 % 0.0 mm
17:18 19.3 °C 16.0 °C 1020.9 hPa South 1.4 km/h 13.0 km/h 82 % 0.0 mm
17:23 19.3 °C 16.0 °C 1020.9 hPa South 3.5 km/h 13.0 km/h 82 % 0.0 mm
17:28 19.3 °C 16.0 °C 1020.9 hPa Calm   11.9 km/h 82 % 0.0 mm
17:33 19.3 °C 16.0 °C 1020.9 hPa South 7.9 km/h 11.9 km/h 82 % 0.0 mm
17:38 19.5 °C 17.0 °C 1020.9 hPa Calm   9.7 km/h 83 % 0.0 mm
17:43 19.8 °C 17.0 °C 1020.9 hPa South 5.0 km/h 8.7 km/h 83 % 0.0 mm
17:45 19.7 °C 17.0 °C 1020.9 hPa South 4.7 km/h 8.7 km/h 83 % 0.0 mm
17:50 19.7 °C 17.0 °C 1019.9 hPa SSE 7.9 km/h 8.7 km/h 82 % 0.0 mm
17:55 19.5 °C 17.0 °C 1019.9 hPa SSW 7.6 km/h 8.7 km/h 82 % 0.0 mm
18:00 19.5 °C 17.0 °C 1019.9 hPa ESE 6.9 km/h 9.3 km/h 83 % 0.0 mm
18:05 19.5 °C 17.0 °C 1019.9 hPa SSW 2.1 km/h 9.3 km/h 83 % 0.0 mm
18:10 19.6 °C 17.0 °C 1019.9 hPa Calm   7.2 km/h 84 % 0.0 mm
18:11 19.7 °C 17.0 °C 1019.9 hPa Calm   7.2 km/h 85 % 0.0 mm
18:16 19.7 °C 17.0 °C 1020.9 hPa Calm   7.9 km/h 84 % 0.0 mm
18:21 19.6 °C 17.0 °C 1020.9 hPa SE 5.0 km/h 8.7 km/h 83 % 0.0 mm
18:26 19.4 °C 16.0 °C 1020.9 hPa Calm   8.7 km/h 83 % 0.0 mm
18:31 19.4 °C 16.0 °C 1020.9 hPa Calm   6.9 km/h 83 % 0.0 mm
18:36 19.3 °C 16.0 °C 1020.9 hPa Calm   8.7 km/h 83 % 0.0 mm
18:41 19.1 °C 16.0 °C 1020.9 hPa Calm   8.7 km/h 83 % 0.0 mm
18:46 19.0 °C 16.0 °C 1020.9 hPa Calm   8.7 km/h 84 % 0.0 mm
18:51 18.9 °C 16.0 °C 1020.9 hPa Calm   8.7 km/h 84 % 0.0 mm
18:56 18.7 °C 16.0 °C 1020.9 hPa SSE 1.8 km/h 7.9 km/h 85 % 0.0 mm
19:01 18.6 °C 16.0 °C 1020.9 hPa Calm   7.2 km/h 85 % 0.0 mm
19:06 18.6 °C 16.0 °C 1020.9 hPa Calm   6.4 km/h 86 % 0.0 mm
19:11 18.6 °C 16.0 °C 1020.9 hPa Calm   6.4 km/h 86 % 0.0 mm
19:16 18.7 °C 16.0 °C 1020.9 hPa Calm   6.4 km/h 86 % 0.0 mm
19:21 18.7 °C 16.0 °C 1020.9 hPa Calm   1.4 km/h 86 % 0.0 mm
19:26 18.6 °C 16.0 °C 1020.9 hPa Calm   3.5 km/h 86 % 0.0 mm
19:31 18.6 °C 17.0 °C 1020.9 hPa Calm   3.5 km/h 87 % 0.0 mm
19:36 18.6 °C 17.0 °C 1020.9 hPa Calm     87 % 0.0 mm
19:41 18.6 °C 17.0 °C 1020.9 hPa Calm   7.9 km/h 87 % 0.0 mm
19:46 18.6 °C 17.0 °C 1020.9 hPa Calm   7.9 km/h 87 % 0.0 mm
19:51 18.5 °C 17.0 °C 1020.9 hPa Calm   1.8 km/h 87 % 0.0 mm
19:56 18.5 °C 17.0 °C 1020.9 hPa Calm   1.8 km/h 87 % 0.0 mm
20:01 18.4 °C 16.0 °C 1020.9 hPa Calm   1.4 km/h 87 % 0.0 mm
20:05 18.4 °C 16.0 °C 1020.9 hPa Calm   1.4 km/h 87 % 0.0 mm
20:10 18.4 °C 16.0 °C 1020.9 hPa Calm     87 % 0.0 mm
20:15 18.3 °C 16.0 °C 1020.9 hPa Calm   1.4 km/h 87 % 0.0 mm
20:20 18.3 °C 16.0 °C 1020.9 hPa Calm   5.0 km/h 87 % 0.0 mm
20:25 18.2 °C 16.0 °C 1020.9 hPa Calm   5.0 km/h 88 % 0.0 mm
20:30 18.2 °C 16.0 °C 1021.9 hPa Calm   1.4 km/h 88 % 0.0 mm
20:35 18.2 °C 16.0 °C 1021.9 hPa Calm     88 % 0.0 mm
20:40 18.2 °C 16.0 °C 1021.9 hPa Calm     88 % 0.0 mm
20:45 18.1 °C 16.0 °C 1021.9 hPa Calm     89 % 0.0 mm
20:49 18.1 °C 16.0 °C 1020.9 hPa Calm     89 % 0.0 mm
20:55 18.0 °C 16.0 °C 1020.9 hPa Calm     89 % 0.0 mm
21:00 18.0 °C 16.0 °C 1020.9 hPa Calm   1.8 km/h 89 % 0.0 mm
21:05 18.0 °C 16.0 °C 1020.9 hPa Calm   1.8 km/h 89 % 0.0 mm
21:10 17.9 °C 16.0 °C 1020.9 hPa Calm   1.8 km/h 90 % 0.0 mm
21:15 17.9 °C 16.0 °C 1020.9 hPa Calm   1.8 km/h 90 % 0.0 mm
21:20 17.9 °C 16.0 °C 1020.9 hPa Calm     90 % 0.0 mm
21:25 17.9 °C 16.0 °C 1020.9 hPa Calm     90 % 0.0 mm
21:30 17.9 °C 16.0 °C 1019.9 hPa Calm     90 % 0.0 mm
21:35 17.8 °C 16.0 °C 1019.9 hPa Calm     90 % 0.0 mm
21:40 17.8 °C 16.0 °C 1019.9 hPa Calm     90 % 0.0 mm
21:45 17.8 °C 16.0 °C 1020.9 hPa Calm     91 % 0.0 mm
21:50 17.8 °C 16.0 °C 1020.9 hPa Calm     91 % 0.0 mm
21:55 17.7 °C 16.0 °C 1020.9 hPa Calm     91 % 0.0 mm
22:00 17.7 °C 16.0 °C 1020.9 hPa Calm     91 % 0.0 mm
22:05 17.7 °C 16.0 °C 1020.9 hPa Calm     91 % 0.0 mm
22:06 17.7 °C 16.0 °C 1020.9 hPa Calm     91 % 0.0 mm
22:11 17.7 °C 16.0 °C 1020.9 hPa Calm     91 % 0.0 mm
22:16 17.7 °C 16.0 °C 1020.9 hPa Calm     91 % 0.0 mm
22:21 17.7 °C 16.0 °C 1020.9 hPa Calm     92 % 0.0 mm
22:26 17.7 °C 16.0 °C 1020.9 hPa Calm     92 % 0.0 mm
22:31 17.7 °C 16.0 °C 1020.9 hPa Calm     92 % 0.0 mm
22:36 17.7 °C 16.0 °C 1020.9 hPa Calm     92 % 0.0 mm
22:41 17.6 °C 16.0 °C 1020.9 hPa Calm     92 % 0.0 mm
22:46 17.6 °C 16.0 °C 1020.9 hPa Calm   5.0 km/h 92 % 0.0 mm
22:51 17.6 °C 16.0 °C 1020.9 hPa Calm   5.0 km/h 92 % 0.0 mm
22:56 17.6 °C 16.0 °C 1020.9 hPa Calm     92 % 0.0 mm
23:01 17.6 °C 16.0 °C 1020.9 hPa Calm   6.1 km/h 92 % 0.0 mm
23:06 17.6 °C 16.0 °C 1020.9 hPa Calm   6.1 km/h 92 % 0.0 mm
23:11 17.6 °C 16.0 °C 1020.9 hPa SE 2.6 km/h 3.2 km/h 92 % 0.0 mm
23:16 17.6 °C 16.0 °C 1020.9 hPa Calm   6.1 km/h 92 % 0.0 mm
23:21 17.6 °C 16.0 °C 1020.9 hPa Calm   6.1 km/h 92 % 0.0 mm
23:26 17.6 °C 16.0 °C 1020.9 hPa Calm   4.0 km/h 92 % 0.0 mm
23:31 17.5 °C 16.0 °C 1019.9 hPa Calm   6.9 km/h 92 % 0.0 mm
23:36 17.5 °C 17.0 °C 1019.9 hPa Calm   6.9 km/h 93 % 0.0 mm
23:41 17.5 °C 17.0 °C 1019.9 hPa Calm   2.1 km/h 93 % 0.0 mm
23:46 17.5 °C 17.0 °C 1020.9 hPa Calm   3.5 km/h 93 % 0.0 mm
23:51 17.5 °C 17.0 °C 1020.9 hPa Calm   3.5 km/h 93 % 0.0 mm
23:56 17.5 °C 17.0 °C 1020.9 hPa Calm   2.1 km/h 93 % 0.0 mm
Le Gheer Warneton
Courtoisie de Weather Underground - 2.5 mb

Mise a jour : 17-12-17 09:08:12
Généré par Cumulus 1.9.4 (1099)